Regional Weather Roundup
Issued by NWS

Home | Current Version | Previous Version | Graphics & Text | Print | Product List | Glossary Off
Versions: 1 2 3 4 5 6 7 8 9 10 11 12 13 14 15 16 17 18 19 20 21 22 23 24 25 26 27 28 29 30 31 32 33 34 35 36 37 38 39 40 41 42 43 44 45 46 47 48 49 50

000
ASUS43 KMKX 291520
RWRWI

WISCONSIN REGIONAL WEATHER ROUNDUP
NATIONAL WEATHER SERVICE MILWAUKEE/SULLIVAN WI
1000 AM CDT SUN MAR 29 2015

NOTE: "FAIR" INDICATES FEW OR NO CLOUDS BELOW 12,000 FEET WITH NO
SIGNIFICANT WEATHER AND/OR OBSTRUCTIONS TO VISIBILITY.

WIZ001-002-006>008-014>016-023>028-291600-
NORTHWEST WISCONSIN

CITY           SKY/WX    TMP DP  RH WIND       PRES   REMARKS
SUPERIOR ARPT  DRIZZLE   36  32  85 SW14G22   29.49F WCI  27
ASHLAND        CLOUDY    36  28  73 S16G28    29.52F WCI  26
HAYWARD        CLOUDY    34  29  82 S20       29.54F WCI  23
SIREN          DRIZZLE   36  32  87 S12G17    29.52F WCI  27
CUMBERLAND     MIX PCPN  32  30  93 S9        29.55F WCI  24
RICE LAKE      CLOUDY    34  31  89 S12       29.58F WCI  25
CHETEK         CLOUDY    33  31  92 S10G23    29.59F WCI  25
LADYSMITH      CLOUDY    32  29  90 S9G16     29.61F WCI  24
EAU CLAIRE     CLOUDY    35  30  82 S13       29.63F WCI  26
MENOMONIE      CLOUDY    36  34  92 S16G22    29.60F FOG     WCI  26
NEW RICHMOND   CLOUDY    35  34  95 S16       29.57F FOG     WCI  25
OSCEOLA        CLOUDY    36  35  96 S13       29.58F FOG     WCI  27
$$

WIZ003>005-009-010-017-018-291600-
NORTH CENTRAL WISCONSIN

CITY           SKY/WX    TMP DP  RH WIND       PRES   REMARKS
MANITOWISH WTR CLOUDY    30  28  93 S15G22    29.56F WCI  19
ARBOR VITAE    MIX PCPN  32  28  86 S17G24    29.58F WCI  21
WOODRUFF       MIX PCPN  32  28  86 S17G24    29.58F WCI  21
RHINELANDER    CLOUDY    29  24  82 S20G26    29.62F HAZE    WCI  16
EAGLE RIVER    LGT SNOW  30  24  79 S10G20    29.59F WCI  21
LAND O LAKES   CLOUDY    30  26  83 S12G22    29.56F WCI  21
PHILLIPS       CLOUDY    31  28  88 S17       29.57F WCI  20
TOMAHAWK       CLOUDY    29  26  89 S9        29.64F FOG     WCI  21
MEDFORD        CLOUDY    30  27  88 S13       29.64F WCI  20
MERRILL        CLOUDY    30  27  90 S10G17    29.67F WCI  21
$$

WIZ029-030-035-036-043>047-291600-
CENTRAL WISCONSIN

CITY           SKY/WX    TMP DP  RH WIND       PRES   REMARKS
WAUSAU         CLOUDY    30  26  85 S14       29.67F WCI  19
MOSINEE        CLOUDY    30  28  93 S13       29.71F WCI  20
MARSHFIELD     CLOUDY    32  28  85 S16       29.67F WCI  21
STEVENS POINT  CLOUDY    30  27  88 S13G20    29.71F WCI  20
WAUPACA        DRIZZLE   33  28  79 S17G24    29.74F WCI  23
WAUTOMA        FRZ RAIN  32  29  89 S16G22    29.76F WCI  21
WISC RAPIDS    CLOUDY    32  27  81 S14G21    29.73F WCI  22
CAMP DOUGLAS   CLOUDY    34  34 100 S16G24    29.73F WCI  23
$$

WIZ011>013-019>022-031-037>040-048>050-291600-
NORTHEAST WISCONSIN

CITY           SKY/WX    TMP DP  RH WIND       PRES   REMARKS
ANTIGO         MIX PCPN  29  26  88 S17G23    29.68F WCI  17
SHAWANO        RAIN      34  26  71 SW7G17    29.79S WCI  28
OCONTO         CLOUDY    35  22  59 S10G21    29.78F WCI  27
STURGEON BAY   CLOUDY    34  21  60 S25G31    29.79F WCI  21
GREEN BAY      CLOUDY    37  24  59 S21G30    29.79F WCI  26
MANITOWOC      CLOUDY    35  24  64 S23G32    29.85F WCI  23
APPLETON       LGT RAIN  32  23  69 S20       29.80F WCI  20
CLINTONVILLE   LGT SNOW  32  28  86 S13       29.77F WCI  22
OSHKOSH        FRZ RAIN  33  25  72 S22G36    29.80F WCI  21
$$

WIZ032>034-041-042-053>061-291600-
SOUTHWEST WISCONSIN

CITY           SKY/WX    TMP DP  RH WIND       PRES   REMARKS
LA CROSSE      CLOUDY    37  31  78 S14G24    29.73F WCI  28
SPARTA         CLOUDY    35  31  85 SW8G18    29.73F WCI  28
VIROQUA        CLOUDY    33  32  96 S16       29.74F WCI  22
BOSCOBEL       CLOUDY    35  29  78 S9G21     29.83F WCI  28
PRAIRIE DU CHI CLOUDY    35  28  78 S14G20    29.82F WCI  25
PLATTEVILLE    CLOUDY    32  30  91 S10       29.86S WCI  24
$$

WIZ056-057-062-063-064-067-068-291600-
SOUTH CENTRAL WISCONSIN

CITY           SKY/WX    TMP DP  RH WIND       PRES   REMARKS
REEDSBURG      CLOUDY    32  29  89 S14G22    29.78F WCI  22
BARABOO/DELLS  CLOUDY    31  28  87 S10       29.77F WCI  23
LONE ROCK      CLOUDY    34  28  79 S14G22    29.83R WCI  25
MINERAL POINT  CLOUDY    34  32  93 S13G20    29.82F WCI  25
MADISON        FRZ RAIN  33  26  75 S24G31    29.84F WCI  20
MIDDLETON      CLOUDY    34  28  80 S12G20    29.83F WCI  25
WATERTOWN      MIX PCPN  32  26  79 S15       29.88F WCI  22
MONROE         MIX PCPN  32  30  93 S26G38    29.85F WCI  18
JANESVILLE     LGT RAIN  34  27  75 S23G29    29.92F WCI  22
$$

WIZ051-052-058>065-066-070>072-291600-
SOUTHEAST WISCONSIN

CITY           SKY/WX    TMP DP  RH WIND       PRES   REMARKS
MILWAUKEE      CLOUDY    37  17  44 S21G32    29.93F WCI  26
WAUKESHA       CLOUDY    34  16  47 S17G29    29.98F WCI  23
MILWAUKEE/TIMM PTSUNNY   36  16  44 S18G30    29.93F WCI  25
RACINE         CLOUDY    38  16  40 S17G26    29.96F WCI  28
BURLINGTON     CLOUDY    35  17  49 S20G37    29.93F WCI  24
KENOSHA        PTSUNNY   37  17  44 S24G33    29.96F WCI  26
FOND DU LAC    FRZ RAIN  34  24  67 S25G38    29.83F WCI  21
SHEBOYGAN      PTSUNNY   36  19  50 S23       29.88F WCI  24
WEST BEND      CLOUDY    34  19  55 S20G30    29.88F WCI  22
JUNEAU         FLURRIES  32  25  75 S20G25    29.88F WCI  20
$$

LSZ147-162-291600-
LAKE SUPERIOR

STATION/POSITION TIME  TEMP    WIND        PRES    WAVE
                       AIR SEA DIR/SP/G            HT/PER
                 (UTC) (F)     (DEG/KT/KT) (MB)    (FT/S)
DEVILS ISLAND    1500   35     210/ 10/ 14  999.5F
PORT WING        1420   37     200/ 13      999.7F
SAXON HARBOR     1500   37     200/ 12/ 22 1000.0F
$$

LMZ867-665-643>646-291600-
LAKE MICHIGAN

STATION/POSITION TIME  TEMP    WIND        PRES    WAVE
                       AIR SEA DIR/SP/G            HT/PER
                 (UTC) (F)     (DEG/KT/KT) (MB)    (FT/S)
NORTHPORT PIER   1400   34     180/ 10/ 19 1011.2F
SISTER BAY       1332   34     180/ 25/ 35   N/A
KEWAUNEE LAKESHO 1500   35     180/ 29/ 34 1009.5F
SHEBOYGAN LAKESH 1500   35     180/ 29/ 33 1012.3F
PORT WASHINGTON  1420   36     190/ 14/ 19 1014.9F
MILWAUKEE LAKESH 1500   37     190/ 22/ 27   N/A
KENOSHA   LAKESH 1500   37     190/ 19/ 27 1014.9F
$$

TC  - TEMPERATURE IN CELSIUS
VSB - VISIBILITY IN STATUTE MILES
WCI - WIND CHILL INDEX
HX  - HEAT INDEX




USA.gov is the U.S. government's official web portal to all federal, state and local government web resources and services.